Home   Weather   Xi'an   Past weeks

Flag for China Past Weather in Xi'an, Shaanxi, China — Yesterday and Last 2 Weeks

Now
66 °F

Clear.


Feels Like: 66 °F
Forecast: 54 / 65 °F
Wind: 15 mph from Northeast

Location: Xian/Xianyang

Current Time: Apr 25, 2017 at 3:02:34 am

Latest Report: Apr 25, 2017 at 2:00 am


Visibility: 10 mi

Pressure: 29.86 "Hg

Humidity: 56%

Dew Point: 50 °F

Location of Xi'anLocation

Past Weather in Xi'an — Graph

°F

Xi'an Temperature Yesterday

Maximum temperature yesterday: 82 °F (at 3:00 pm)
Minimum temperature yesterday: 50 °F (at 5:00 am)
Average temperature yesterday: 67 °F

High & Low Weather Summary for the Past Weeks

 TemperatureHumidityPressure
High84 °F (Apr 17, 4:00 pm)100% (Apr 10, 2:00 am)30.24 "Hg (Apr 10, 2:00 am)
Low36 °F (Apr 22, 6:00 am)14% (Apr 20, 10:00 pm)29.62 "Hg (Apr 17, 5:00 pm)
Average61 °F65%29.93 "Hg
* Reported Apr 10 2:00 am — Apr 25 2:00 am, Xi'an, Weather by CustomWeather, © 2017

Note: Actual official high and low records may vary slightly from our data, if they occured in-between our weather recording intervals... More about our weather records

Advertising

Xi'an Weather History for the Previous 24 Hours

Scroll right to see more
 ConditionsComfort  
Time TempWeatherWind HumidityBarometerVisibility
2:00 am
Tue, Apr 25
66 °FClear.15 mph56%29.86 "Hg10 mi
1:00 am68 °FClear.10 mph56%29.89 "Hg10 mi
12:00 am68 °FClear.8 mph56%29.89 "Hg10 mi
11:00 pm
Mon, Apr 24
72 °FPassing clouds.6 mph44%29.86 "HgN/A
10:00 pm68 °FPassing clouds.1 mph64%29.83 "HgN/A
9:00 pm70 °FLight rain. Passing clouds.3 mph57%29.83 "HgN/A
8:00 pm72 °FPartly sunny.3 mph50%29.80 "HgN/A
7:00 pm73 °FPartly sunny.3 mph44%29.77 "HgN/A
6:00 pm79 °FPassing clouds.8 mph30%29.77 "HgN/A
5:00 pm79 °FPassing clouds.10 mph34%29.77 "HgN/A
4:00 pm81 °FPassing clouds.8 mph32%29.77 "HgN/A
3:00 pm82 °FPassing clouds.10 mph30%29.80 "HgN/A
2:00 pm81 °FPassing clouds.8 mph32%29.83 "HgN/A
1:00 pm79 °FPassing clouds.6 mph34%29.86 "HgN/A
12:00 pm79 °FSunny.3 mph37%29.86 "Hg10 mi
11:00 am73 °FPassing clouds.3 mph44%29.89 "HgN/A
10:00 am72 °FClear.3 mph50%29.89 "Hg5 mi
9:00 am68 °FClear.3 mph60%29.86 "Hg5 mi
8:00 am61 °FClear.1 mph72%29.86 "Hg5 mi
7:00 am52 °FClear.1 mph94%29.83 "Hg5 mi
6:00 am52 °FClear.No wind88%29.80 "Hg10 mi
5:00 am50 °FClear.No wind94%29.77 "Hg10 mi
4:00 am52 °FClear.1 mph88%29.74 "Hg10 mi
3:00 am52 °FClear.1 mph94%29.74 "Hg10 mi
Weather by CustomWeather, © 2017

See weather overviewHow to use our weather pages